カタログに戻る

STARLINK-30144

運用中通信VLEO
NORAD 56835·PAYLOAD·🇺🇸 United States

打ち上げ Jun 4, 2023 から Cape Canaveral Space Force Station

Loading…

次のパス (今後24時間)

TLE

最新Source: CelesTrak SupGP

元期: Sep 14, 2026, 14:57 UTC

1 56835C 23079N   26257.62340278  .00134740  00000+0  19792-2 0  2577
2 56835  42.9858  97.8191 0024466 262.1710 274.6773 15.54168469    17

AllMySatでSTARLINK-30144をリアルタイム追跡

Download on the App Store